Location: Unspecified
(54.1780°N, 0.0000°E)
Time: 05:09:36
(UTC+00:00)

Altair - Pass Details

Date: 27 June 2019
Orbit: 1501 x 1683 km, 47.2° (Epoch: 16 August)

Event Time Altitude Azimuth Distance (km) Brightness Sun altitude
Rises 18:24:59 0° 219° (SW) 4,670 10.3 15.6°
Reaches altitude 10° 18:28:14 10° 212° (SSW) 3,710 9.7 15.2°
Maximum altitude 18:36:36 38° 149° (SSE) 2,241 8.2 14.0°
Drops below altitude 10° 18:45:16 10° 86° (E) 3,848 9.1 12.9°
Sets 18:48:43 0° 79° (E) 4,861 9.6 12.4°
